NEA330 KMCO-KPHX

Flight info

Callsign NEA330
Flight time N/A
Altitude 36000
Route OSPRY1 REMIS Y280 LEV J86 ELP DRRVR PINNG1
Aircraft A321/M-SDE3FGHIRWY/LB1

Departure

Time 2026-05-08 08:12
Airport Orlando International Airport (KMCO)

Arrival

Time N/A
Airport Phoenix Sky Harbor International Airport (KPHX)
Time Latitude Longitude Altitude Speed Heading
2026-05-08 07:58 28.42792 -81.30003 94 ft 0 kts 306°
2026-05-08 07:59 28.42791 -81.30001 94 ft 2 kts 306°
2026-05-08 07:59 28.42782 -81.29986 95 ft 2 kts 306°
2026-05-08 07:59 28.42772 -81.29971 95 ft 2 kts 295°
2026-05-08 07:59 28.42767 -81.29953 95 ft 2 kts 265°
2026-05-08 08:00 28.42770 -81.29932 93 ft 3 kts 257°
2026-05-08 08:00 28.42777 -81.29912 95 ft 3 kts 224°
2026-05-08 08:00 28.42791 -81.29900 93 ft 3 kts 192°
2026-05-08 08:00 28.42802 -81.29899 93 ft 0 kts 177°
2026-05-08 08:03 28.42800 -81.29898 93 ft 1 kts 177°
2026-05-08 08:03 28.42790 -81.29897 93 ft 2 kts 174°
2026-05-08 08:03 28.42784 -81.29897 94 ft 0 kts 173°
2026-05-08 08:04 28.42782 -81.29896 94 ft 1 kts 168°
2026-05-08 08:04 28.42752 -81.29889 94 ft 6 kts 168°
2026-05-08 08:04 28.42705 -81.29883 94 ft 7 kts 178°
2026-05-08 08:05 28.42650 -81.29882 95 ft 8 kts 179°
2026-05-08 08:05 28.42602 -81.29849 95 ft 8 kts 113°
2026-05-08 08:05 28.42565 -81.29800 95 ft 9 kts 163°
2026-05-08 08:05 28.42498 -81.29795 97 ft 10 kts 179°
2026-05-08 08:06 28.42415 -81.29795 96 ft 14 kts 179°
2026-05-08 08:06 28.42312 -81.29793 96 ft 15 kts 179°
2026-05-08 08:06 28.42204 -81.29792 94 ft 16 kts 179°
2026-05-08 08:06 28.42087 -81.29791 95 ft 18 kts 179°
2026-05-08 08:07 28.41961 -81.29789 96 ft 19 kts 179°
2026-05-08 08:07 28.41830 -81.29788 94 ft 19 kts 180°
2026-05-08 08:07 28.41693 -81.29787 96 ft 20 kts 179°
2026-05-08 08:07 28.41553 -81.29785 94 ft 20 kts 179°
2026-05-08 08:08 28.41408 -81.29783 97 ft 21 kts 179°
2026-05-08 08:08 28.41260 -81.29783 96 ft 22 kts 180°
2026-05-08 08:08 28.41108 -81.29781 96 ft 22 kts 179°
2026-05-08 08:08 28.40954 -81.29779 94 ft 21 kts 179°
2026-05-08 08:09 28.40841 -81.29769 95 ft 12 kts 154°
2026-05-08 08:09 28.40821 -81.29682 95 ft 12 kts 91°
2026-05-08 08:09 28.40826 -81.29585 93 ft 8 kts 79°
2026-05-08 08:09 28.40867 -81.29560 95 ft 6 kts
2026-05-08 08:10 28.40870 -81.29560 95 ft 0 kts
2026-05-08 08:11 28.40892 -81.29560 93 ft 16 kts
2026-05-08 08:11 28.41320 -81.29565 97 ft 104 kts 359°
2026-05-08 08:11 28.42304 -81.29577 97 ft 173 kts 360°
2026-05-08 08:12 28.43184 -81.29579 269 ft 198 kts 358°
2026-05-08 08:12 28.45011 -81.29553 1554 ft 196 kts 357°
2026-05-08 08:12 28.46379 -81.29598 2465 ft 199 kts 351°
2026-05-08 08:12 28.47784 -81.29897 3122 ft 214 kts 345°
2026-05-08 08:13 28.49298 -81.30335 3675 ft 233 kts 344°
2026-05-08 08:13 28.50909 -81.30771 4155 ft 244 kts 345°
2026-05-08 08:13 28.52559 -81.31293 4768 ft 249 kts 339°
2026-05-08 08:13 28.54197 -81.31967 5417 ft 252 kts 337°
2026-05-08 08:14 28.55789 -81.32804 6089 ft 253 kts 330°
2026-05-08 08:14 28.57356 -81.33774 6747 ft 255 kts 327°
2026-05-08 08:14 28.58696 -81.35091 7341 ft 254 kts 305°
2026-05-08 08:14 28.59525 -81.36864 7786 ft 263 kts 285°
2026-05-08 08:15 28.59738 -81.38966 8166 ft 274 kts 268°
2026-05-08 08:15 28.59692 -81.41150 8767 ft 278 kts 269°
2026-05-08 08:15 28.59662 -81.43354 9410 ft 280 kts 269°
2026-05-08 08:15 28.59640 -81.45614 10050 ft 282 kts 269°
2026-05-08 08:16 28.59527 -81.47899 10276 ft 301 kts 260°
2026-05-08 08:16 28.59161 -81.49456 10360 ft 314 kts 250°
2026-05-08 08:16 28.58064 -81.51682 10546 ft 332 kts 232°
2026-05-08 08:16 28.56535 -81.53698 11018 ft 338 kts 231°
2026-05-08 08:17 28.55060 -81.55633 11566 ft 340 kts 231°
2026-05-08 08:17 28.53518 -81.57668 12183 ft 340 kts 231°
2026-05-08 08:17 28.51971 -81.59717 12795 ft 342 kts 231°
2026-05-08 08:17 28.50398 -81.61800 13379 ft 343 kts 231°
2026-05-08 08:18 28.48842 -81.63856 13962 ft 345 kts 231°
2026-05-08 08:18 28.47274 -81.65922 14482 ft 346 kts 232°
2026-05-08 08:18 28.45695 -81.68000 15001 ft 348 kts 232°
2026-05-08 08:18 28.44109 -81.70089 15531 ft 350 kts 232°
2026-05-08 08:19 28.42516 -81.72188 16045 ft 352 kts 232°
2026-05-08 08:19 28.40915 -81.74299 16567 ft 354 kts 232°
2026-05-08 08:19 28.39303 -81.76425 17093 ft 356 kts 232°
2026-05-08 08:19 28.37683 -81.78555 17618 ft 358 kts 233°
2026-05-08 08:20 28.36048 -81.80701 18144 ft 360 kts 233°
2026-05-08 08:20 28.34379 -81.82890 18620 ft 362 kts 233°
2026-05-08 08:20 28.32748 -81.85034 19063 ft 364 kts 233°
2026-05-08 08:20 28.31104 -81.87231 19526 ft 365 kts 237°
2026-05-08 08:21 28.29759 -81.89698 19972 ft 363 kts 247°
2026-05-08 08:21 28.28893 -81.92381 20426 ft 362 kts 258°
2026-05-08 08:21 28.28368 -81.95172 20896 ft 363 kts 259°
2026-05-08 08:21 28.27843 -81.97988 21364 ft 365 kts 259°
2026-05-08 08:22 28.27309 -82.00813 21824 ft 367 kts 259°
2026-05-08 08:22 28.26766 -82.03649 22266 ft 369 kts 259°
2026-05-08 08:22 28.26221 -82.06500 22704 ft 371 kts 259°
2026-05-08 08:22 28.25671 -82.09361 23129 ft 372 kts 259°
2026-05-08 08:23 28.25117 -82.12232 23547 ft 374 kts 259°
2026-05-08 08:23 28.24561 -82.15124 23886 ft 376 kts 259°
2026-05-08 08:23 28.24004 -82.18028 24232 ft 378 kts 259°